Home   Weather   Gomel   Past weeks

Flag for Belarus Past Weather in Gomel, Belarus — Yesterday and Last 2 Weeks

Now
50 °F

Clear.


Feels Like: 46 °F
Forecast: 43 / 59 °F
Wind: 10 mph from Northeast

Location: Gomel'

Current Time: Sep 25, 2016 at 11:51:15 PM

Latest Report: Sep 25, 2016 at 11:00 PM


Visibility: 10 mi

Pressure: 30.18 "Hg

Humidity: 76%

Dew Point: 43 °F

Location of GomelLocation

Past Weather in Gomel — Graph

°F

Gomel Temperature Yesterday

Maximum temperature yesterday: 63 °F (at 4:00 PM)
Minimum temperature yesterday: 41 °F (at 12:00 AM)
Average temperature yesterday: 52 °F

High & Low Weather Summary for the Past Weeks

 TemperatureHumidityPressure
High82 °F (Sep 12, 4:00 PM)100% (Sep 12, 4:00 AM)30.21 "Hg (Sep 12, 4:00 AM)
Low41 °F (Sep 18, 7:00 AM)34% (Sep 14, 12:00 PM)29.83 "Hg (Sep 22, 7:30 AM)
Average55 °F74%30.02 "Hg
* Reported Sep 10 10:00 PM — Sep 25 10:00 PM, Gomel, Weather by CustomWeather, © 2016

Note: Actual official high and low records may vary slightly from our data, if they occured in-between our weather recording intervals... More about our weather records

Advertising

Gomel Weather History for the Previous 24 Hours

Scroll right to see more
 ConditionsComfort  
Time TempWeatherWind HumidityBarometerVisibility
10:00 PM
Sun, Sep 25
52 °FClear.8 mph77%30.18 "Hg10 mi
9:00 PM52 °FPartly cloudy.8 mph77%30.18 "HgN/A
8:00 PM52 °FClear.10 mph77%30.18 "Hg10 mi
7:30 PM54 °FBroken clouds.10 mph72%30.18 "HgN/A
7:00 PM54 °FBroken clouds.10 mph72%30.18 "HgN/A
6:30 PM55 °FBroken clouds.13 mph55%30.15 "HgN/A
6:00 PM55 °FBroken clouds.13 mph55%30.15 "HgN/A
5:30 PM57 °FBroken clouds.13 mph59%30.15 "HgN/A
5:00 PM57 °FBroken clouds.13 mph59%30.15 "HgN/A
4:30 PM57 °FBroken clouds.13 mph59%30.18 "HgN/A
4:00 PM57 °FPartly sunny.13 mph59%30.18 "HgN/A
3:30 PM59 °FPartly sunny.13 mph48%30.18 "HgN/A
3:00 PM59 °FPartly sunny.13 mph48%30.18 "HgN/A
2:30 PM59 °FScattered clouds.13 mph55%30.18 "HgN/A
2:00 PM59 °FScattered clouds.13 mph55%30.18 "HgN/A
1:30 PM57 °FScattered clouds.13 mph67%30.18 "HgN/A
1:00 PM57 °FBroken clouds.13 mph67%30.18 "HgN/A
12:30 PM57 °FBroken clouds.13 mph67%30.18 "HgN/A
12:00 PM57 °FBroken clouds.13 mph67%30.18 "HgN/A
11:30 AM55 °FBroken clouds.6 mph82%30.18 "HgN/A
11:00 AM55 °FBroken clouds.8 mph82%30.18 "HgN/A
10:30 AM54 °FBroken clouds.8 mph88%30.18 "HgN/A
10:00 AM54 °FClear.8 mph88%30.18 "Hg6 mi
9:30 AM50 °FClear.6 mph94%30.18 "Hg6 mi
9:00 AM50 °FClear.6 mph94%30.18 "Hg4 mi
8:30 AM48 °FFog.6 mph94%30.21 "Hg3 mi
8:00 AM48 °FFog.6 mph94%30.18 "Hg3 mi
7:30 AM46 °FFog.6 mph100%30.18 "Hg3 mi
7:00 AM46 °FFog.3 mph100%30.18 "Hg3 mi
6:30 AM46 °FFog.3 mph100%30.18 "Hg3 mi
6:00 AM46 °FFog.3 mph100%30.18 "Hg2 mi
5:00 AM46 °FFog.3 mph100%30.18 "Hg2 mi
4:47 AM46 °FFog.3 mph100%30.18 "Hg1 mi
4:00 AM46 °FFog.3 mph100%30.18 "Hg0 mi
3:00 AM48 °FFog.3 mph100%30.15 "Hg0 mi
2:00 AM48 °FFog.3 mph100%30.15 "Hg0 mi
1:00 AM50 °FFog.6 mph94%30.15 "Hg2 mi
12:00 AM52 °FFog.6 mph94%30.15 "Hg2 mi
11:00 PM
Sat, Sep 24
52 °FFog.3 mph94%30.15 "Hg3 mi
Weather by CustomWeather, © 2016

See weather overviewHow to use our weather pages